Flag for U.S.A. Weather past 2 weeks in Breckenridge, Colorado, U.S.A.

Now
23 °F

Low clouds.


Feels Like: 17 °F
Forecast: 27 / 41 °F
Wind: 5 mph from West

Location: Copper Mountain - Red Cliff Pass

Current Time: Apr 18, 2015 at 10:44:35 AM

Latest Report: Apr 18, 2015 at 10:15 AM


Visibility: N/A

Pressure: 29.96 "Hg

Humidity: 74%

Dew point: 16 °F

Location of BreckenridgeLocation

Historic Weather in Breckenridge — Graph

°F

Breckenridge temperature yesterday

Maximum temperature yesterday: 34 °F (at 1:15 AM)
Minimum temperature yesterday: 19 °F (at 8:15 PM)
Average temperature yesterday: 25 °F

Past Weeks' High & Low Weather Summary

 TemperatureHumidityPressure
High46 °F (Apr 13, 2:35 PM)100% (Apr 17, 1:15 AM)30.43 "Hg (Apr 17, 1:15 AM)
Low12 °F (Apr 3, 9:35 AM)4% (Apr 4, 10:35 AM)29.76 "Hg (Apr 8, 3:55 PM)
Average31 °F37%30.10 "Hg
* Reported Apr 3 9:15 AM — Apr 18 9:35 AM, Breckenridge, Weather by CustomWeather, © 2015

Note: Actual official high and low records may vary slightly from our data, if they occured in-between our weather recording intervals... More about our weather records

Advertising

Breckenridge weather history for previous 24 hours

 ConditionsComfort  
Time TempWeatherWind HumidityBarometerVisibility
9:35 AM
Sat, Apr 18
21 °FThundershowers. Low clouds.6 mph74%29.96 "HgN/A
9:15 AM23 °FLow clouds.5 mph74%29.96 "HgN/A
8:55 AM19 °FMostly cloudy.10 mph79%29.96 "HgN/A
8:35 AM19 °FLow clouds.7 mph79%29.96 "HgN/A
8:15 AM19 °FLow clouds.10 mph79%29.96 "HgN/A
7:55 AM19 °FLow clouds.12 mph79%29.96 "HgN/A
7:35 AM19 °FLow clouds.7 mph79%29.96 "HgN/A
7:15 AM19 °FLow clouds.7 mph79%29.96 "HgN/A
6:55 AM19 °FLow clouds.3 mph79%29.96 "HgN/A
6:35 AM19 °FLow clouds.5 mph79%29.96 "HgN/A
6:15 AM19 °FLow clouds.3 mph79%29.96 "HgN/A
5:55 AM18 °FMostly cloudy.3 mph79%29.97 "HgN/A
5:35 AM18 °FLow clouds.6 mph79%29.97 "HgN/A
5:15 AM18 °FLow clouds.13 mph73%29.97 "HgN/A
4:55 AM19 °FThundershowers. Mostly cloudy.16 mph68%29.97 "HgN/A
4:35 AM19 °FOvercast.12 mph73%29.97 "HgN/A
4:15 AM19 °FOvercast.3 mph73%29.98 "HgN/A
3:55 AM19 °FOvercast.No wind73%29.99 "HgN/A
3:35 AM19 °FOvercast.7 mph73%29.99 "HgN/A
3:15 AM19 °FOvercast.13 mph73%29.98 "HgN/A
2:55 AM19 °FPassing clouds.No wind73%29.99 "HgN/A
2:35 AM19 °FPartly cloudy.3 mph68%29.99 "HgN/A
2:15 AM19 °FMostly cloudy.No wind68%30.01 "Hg10 mi
1:55 AM19 °FOvercast.No wind63%30.02 "Hg10 mi
1:35 AM21 °FMostly cloudy.7 mph54%30.03 "Hg10 mi
1:15 AM21 °FMostly cloudy.9 mph58%30.03 "Hg10 mi
12:55 AM21 °FMostly cloudy.No wind58%30.04 "Hg10 mi
12:35 AM21 °FOvercast.No wind58%30.05 "Hg10 mi
12:15 AM19 °FOvercast.No wind63%30.05 "Hg10 mi
11:55 PM
Fri, Apr 17
21 °FMostly cloudy.3 mph54%30.05 "Hg10 mi
11:35 PM21 °FMostly cloudy.No wind49%30.06 "HgN/A
11:15 PM21 °FMostly cloudy.3 mph49%30.06 "HgN/A
10:55 PM23 °FMostly cloudy.7 mph42%30.06 "HgN/A
10:35 PM23 °FOvercast.8 mph30%30.06 "HgN/A
10:15 PM23 °FMostly cloudy.3 mph33%30.06 "HgN/A
9:55 PM23 °FPassing clouds.8 mph33%30.05 "HgN/A
9:15 PM19 °FThundershowers. Overcast.14 mph35%30.05 "HgN/A
8:55 PM19 °FPassing clouds.8 mph42%30.05 "HgN/A
8:35 PM19 °FThundershowers. Scattered clouds.No wind45%30.05 "HgN/A
8:15 PM19 °FSunny.No wind53%30.05 "HgN/A
7:55 PM23 °FSunny.No wind30%30.03 "HgN/A
7:35 PM21 °FSunny.9 mph38%30.02 "HgN/A
7:15 PM23 °FScattered clouds.8 mph42%30.03 "HgN/A
6:55 PM23 °FScattered clouds.13 mph42%30.02 "HgN/A
6:35 PM23 °FSunny.7 mph42%30.03 "HgN/A
6:15 PM23 °FSunny.17 mph39%30.01 "HgN/A
5:55 PM23 °FSunny.29 mph42%29.99 "HgN/A
5:35 PM23 °FSunny.17 mph42%30.01 "HgN/A
5:15 PM23 °FSunny.26 mph42%29.98 "HgN/A
4:55 PM25 °FSunny.20 mph42%29.99 "HgN/A
4:35 PM25 °FSunny.31 mph42%29.96 "HgN/A
4:15 PM25 °FThundershowers. Sunny.26 mph39%29.96 "HgN/A
3:55 PM25 °FScattered clouds.26 mph39%29.96 "HgN/A
3:35 PM25 °FScattered clouds.30 mph50%29.96 "HgN/A
3:15 PM25 °FScattered clouds.37 mph54%29.94 "HgN/A
2:55 PM23 °FMostly cloudy.N/A63%29.95 "HgN/A
2:35 PM25 °FCloudy.31 mph63%29.94 "HgN/A
2:15 PM27 °FCloudy.36 mph64%29.91 "HgN/A
1:55 PM28 °FCloudy.29 mph59%29.93 "HgN/A
1:35 PM28 °FBroken clouds.28 mph64%29.93 "HgN/A
1:15 PM30 °FCloudy.33 mph69%29.93 "HgN/A
12:55 PM28 °FMostly cloudy.31 mph74%29.95 "HgN/A
12:35 PM27 °FCloudy.29 mph74%29.95 "HgN/A
12:15 PM25 °FMostly cloudy.45 mph80%29.91 "HgN/A
11:55 AM25 °FHeavy snow. Low clouds.54 mph80%29.88 "HgN/A
11:35 AM25 °FHeavy snow. Low clouds.33 mph80%29.96 "Hg0 mi
11:15 AM27 °FHeavy snow. Mostly cloudy.N/A80%29.95 "Hg0 mi
10:55 AM27 °FHeavy snow. Low clouds.31 mph80%29.96 "Hg0 mi
10:35 AM27 °FHeavy snow. Low clouds.20 mph80%29.98 "Hg0 mi
10:15 AM27 °FSnow. Low clouds.22 mph80%29.98 "Hg0 mi
Weather by CustomWeather, © 2015

See weather overviewHow to use our weather pages